Location: Bennemühlen
(52.5740°N, 9.7135°E)
Time: 02:25:33
(UTC+00:00)

Vanguard 2 Rocket - Pass Details

Date: 17 February 2026
Orbit: 553 x 3287 km, 32.9° (Epoch: 5 March)

Event Time Altitude Azimuth Distance (km) Brightness Sun altitude
Rises 14:43:47 0° 252° (WSW) 6,795 12.7 14.0°
Reaches altitude 10° 14:49:39 10° 243° (WSW) 5,396 12.9 13.3°
Maximum altitude 15:00:59 27° 194° (SSW) 3,201 10.6 12.0°
Drops below altitude 10° 15:08:37 10° 140° (SE) 3,547 9.9 11.1°
Sets 15:11:34 0° 128° (SE) 4,176 10.1 10.7°
